This demonstration page uses our WeatherBlox Daily Observations layout. Learn more.

Hourly Observations for February 20, 2017

Temp ( °F °C ) Dew Point ( °F °C ) Humidity (%) Winds ( mph kmh ) Pressure ( in mb ) Visibility ( mi km ) Precip ( " mm )
12:15 am 00:15 Clear 52 11 45 7 77 77 undefined N/A 30.09 1019 10 16.09344 0 0
12:35 am 00:35 Clear 52 11 45 7 77 77 undefined N/A 30.09 1019 10 16.09344 0 0
12:55 am 00:55 Clear 52 11 45 7 77 77 undefined N/A 30.09 1019 10 16.09344 0 0
1:15 am 01:15 Clear 52 11 45 7 77 77 undefined N/A 30.09 1019 10 16.09344 0 0
1:35 am 01:35 Clear 52 11 45 7 77 77 undefined N/A 30.09 1019 10 16.09344 0 0
1:55 am 01:55 Clear 52 11 45 7 77 77 undefined N/A 30.09 1019 10 16.09344 0 0
2:15 am 02:15 Clear 52 11 45 7 77 77 undefined N/A 30.09 1019 10 16.09344 0 0
2:35 am 02:35 Clear 52 11 45 7 77 77 undefined N/A 30.12 1020 10 16.09344 0 0
2:55 am 02:55 Clear 52 11 45 7 77 77 undefined N/A 30.12 1020 10 16.09344 0 0
3:15 am 03:15 Clear 50 10 45 7 82 82 undefined N/A 30.15 1021 10 16.09344 0 0
3:35 am 03:35 Clear 50 10 45 7 82 82 undefined N/A 30.15 1021 10 16.09344 0 0
3:55 am 03:55 Clear 50 10 45 7 82 82 undefined N/A 30.15 1021 10 16.09344 0 0
4:15 am 04:15 Clear 46 8 43 6 87 87 undefined N/A 30.18 1022 10 16.09344 0 0
4:35 am 04:35 Clear 46 8 43 6 87 87 undefined N/A 30.18 1022 10 16.09344 0 0
4:55 am 04:55 Clear 48 9 45 7 87 87 undefined N/A 30.18 1022 10 16.09344 0 0
5:15 am 05:15 Clear 46 8 43 6 87 87 undefined N/A 30.18 1022 10 16.09344 0 0
5:35 am 05:35 Clear 45 7 43 6 93 93 undefined N/A 30.18 1022 10 16.09344 0 0
5:55 am 05:55 Clear 45 7 43 6 93 93 undefined N/A 30.18 1022 10 16.09344 0 0
6:15 am 06:15 Clear 43 6 41 5 93 93 undefined N/A 30.21 1023 10 16.09344 0 0
6:35 am 06:35 Clear 43 6 41 5 93 93 undefined N/A 30.21 1023 10 16.09344 0 0
6:55 am 06:55 Sunny 43 6 41 5 93 93 undefined N/A 30.24 1024 10 16.09344 0 0
7:15 am 07:15 Sunny 41 5 37 3 87 87 undefined N/A 30.24 1024 7 11.265408 0 0
7:35 am 07:35 Sunny 41 5 41 5 100 100 undefined N/A 30.24 1024 7 11.265408 0 0
7:55 am 07:55 Sunny 45 7 43 6 93 93 undefined N/A 30.27 1025 10 16.09344 0 0
8:15 am 08:15 Sunny 48 9 45 7 87 87 undefined N/A 30.27 1025 10 16.09344 0 0
8:35 am 08:35 Sunny 52 11 45 7 77 77 undefined N/A 30.27 1025 10 16.09344 0 0
8:55 am 08:55 Sunny 54 12 45 7 72 72 undefined N/A 30.24 1024 10 16.09344 0 0
9:15 am 09:15 Sunny 55 13 45 7 67 67 undefined N/A 30.27 1025 10 16.09344 0 0
9:35 am 09:35 Sunny 57 14 46 8 67 67 N 12 19 30.27 1025 10 16.09344 0 0
9:55 am 09:55 Sunny 59 15 45 7 59 59 N 10 17 30.27 1025 10 16.09344 0 0
10:15 am 10:15 Sunny 59 15 45 7 59 59 NNW 16 26 30.27 1025 10 16.09344 0 0
10:35 am 10:35 Sunny 59 15 43 6 55 55 N 16 26 30.27 1025 10 16.09344 0 0
10:55 am 10:55 Sunny 59 15 43 6 55 55 N 15 24 30.27 1025 10 16.09344 0 0
11:15 am 11:15 Sunny 61 16 43 6 52 52 NNW 16 26 30.27 1025 10 16.09344 0 0
11:35 am 11:35 Sunny 61 16 41 5 48 48 N 16 26 30.27 1025 10 16.09344 0 0
11:55 am 11:55 Sunny 61 16 41 5 48 48 NNE 13 20 30.27 1025 10 16.09344 0 0
12:15 pm 12:15 Sunny 63 17 39 4 42 42 N 16 26 30.24 1024 10 16.09344 0 0
12:35 pm 12:35 Sunny 63 17 39 4 42 42 N 16 26 30.24 1024 10 16.09344 0 0
12:55 pm 12:55 Sunny 63 17 39 4 42 42 N 15 24 30.24 1024 10 16.09344 0 0
1:15 pm 13:15 Sunny 64 18 41 5 43 43 NNW 9 15 30.21 1023 10 16.09344 0 0
1:35 pm 13:35 Sunny 64 18 39 4 40 40 N 10 17 30.21 1023 10 16.09344 0 0
1:55 pm 13:55 Sunny 64 18 39 4 40 40 N 7 11 30.21 1023 10 16.09344 0 0
2:15 pm 14:15 Sunny 64 18 39 4 40 40 NNW 7 11 30.21 1023 10 16.09344 0 0
2:35 pm 14:35 Sunny 64 18 39 4 40 40 N 10 17 30.21 1023 10 16.09344 0 0
2:55 pm 14:55 Sunny 64 18 39 4 40 40 NNE 10 17 30.21 1023 10 16.09344 0 0
3:15 pm 15:15 Sunny 64 18 39 4 40 40 NNE 13 20 30.21 1023 10 16.09344 0 0
3:35 pm 15:35 Sunny 64 18 37 3 37 37 ENE 7 11 30.21 1023 10 16.09344 0 0
3:55 pm 15:55 Sunny 64 18 37 3 37 37 N 3 6 30.21 1023 10 16.09344 0 0
4:15 pm 16:15 Sunny 64 18 36 2 34 34 NNE 12 19 30.21 1023 10 16.09344 0 0
4:35 pm 16:35 Sunny 64 18 36 2 34 34 NNE 7 11 30.21 1023 10 16.09344 0 0
4:55 pm 16:55 Sunny 64 18 34 1 32 32 NNE 13 20 30.21 1023 10 16.09344 0 0
5:15 pm 17:15 Sunny 63 17 34 1 34 34 NE 9 15 30.24 1024 10 16.09344 0 0
5:35 pm 17:35 Sunny 63 17 34 1 34 34 NE 6 9 30.24 1024 10 16.09344 0 0
5:55 pm 17:55 Clear 61 16 34 1 36 36 NE 3 6 30.24 1024 10 16.09344 0 0
6:15 pm 18:15 Clear 59 15 34 1 39 39 NE 5 7 30.24 1024 10 16.09344 0 0
6:35 pm 18:35 Clear 59 15 32 0 36 36 ENE 3 6 30.24 1024 10 16.09344 0 0
6:55 pm 18:55 Clear 59 15 32 0 36 36 NE 6 9 30.24 1024 10 16.09344 0 0
7:15 pm 19:15 Clear 55 13 32 0 41 41 NE 6 9 30.24 1024 10 16.09344 0 0
7:35 pm 19:35 Clear 55 13 34 1 44 44 NE 6 9 30.24 1024 10 16.09344 0 0
7:55 pm 19:55 Clear 54 12 34 1 47 47 NE 5 7 30.24 1024 10 16.09344 0 0
8:15 pm 20:15 Clear 54 12 34 1 47 47 undefined N/A 30.3 1026 10 16.09344 0 0
8:35 pm 20:35 Clear 52 11 34 1 50 50 undefined N/A 30.3 1026 10 16.09344 0 0
8:55 pm 20:55 Clear 54 12 34 1 47 47 undefined N/A 30.3 1026 10 16.09344 0 0
9:15 pm 21:15 Clear 46 8 36 2 66 66 undefined N/A 30.3 1026 10 16.09344 0 0
9:35 pm 21:35 Clear 46 8 34 1 62 62 undefined N/A 30.33 1027 10 16.09344 0 0
9:55 pm 21:55 Clear 48 9 34 1 58 58 undefined N/A 30.33 1027 10 16.09344 0 0
10:15 pm 22:15 Clear 50 10 34 1 54 54 undefined N/A 30.33 1027 10 16.09344 0 0
10:35 pm 22:35 Clear 50 10 34 1 54 54 undefined N/A 30.33 1027 10 16.09344 0 0
10:55 pm 22:55 Clear 50 10 34 1 54 54 undefined N/A 30.33 1027 10 16.09344 0 0
11:15 pm 23:15 Clear 48 9 34 1 58 58 undefined N/A 30.33 1027 10 16.09344 0 0
11:35 pm 23:35 Clear 45 7 34 1 66 66 undefined N/A 30.33 1027 10 16.09344 0 0
11:55 pm 23:55 Clear 41 5 34 1 76 76 undefined N/A 30.33 1027 10 16.09344 0 0

Powered by AerisWeather